Location: B�rgermoos
(47.6500°N, 9.0667°E)
Time: 18:31:08
(UTC+00:00)

Tiros 1 - Pass Details

Date: 13 August 2021
Orbit: 630 x 663 km, 48.4° (Epoch: 20 September)

Event Time Altitude Azimuth Distance (km) Brightness Sun altitude
Rises 16:26:01 0° 279° (W) 2,995 12.0 21.1°
Reaches altitude 10° 16:28:22 10° 280° (W) 2,080 11.7 20.7°
Maximum altitude 16:33:12 89° 8° (N) 664 7.6 19.9°
Drops below altitude 10° 16:37:59 10° 101° (ESE) 2,062 9.2 19.1°
Sets 16:40:18 0° 102° (ESE) 2,968 9.9 18.7°
